Find OneWeb SL0267

NORAD ID: 48985 Int'l Des: 2021-060 Owner: ONEWEBN Country: UK Constellation: oneweb operational
LEOCIRCULARPOLARONEWEB_TYPE

Live Position

Loading 3D Globe...

About OneWeb SL0267

Description loading...

Upcoming Passes

Passes for default location (London). Set your location on the main map for personalized predictions.

Altitude History

Loading altitude history...

Two-Line Element Set

1 48985U 21060U 26110.38307633 -.00000008 00000-0 -55631-4 0 9990
2 48985 87.9078 240.2521 0002006 97.3800 262.7559 13.16594654231989
Epoch: Apr 20, 2026 • Age: 13 hours

Current Status

Altitude 1202.3 km
Velocity 7.26 km/s
Sub-Earth Point 38.39°N, 60.46°E
Launch Date Jul 1, 2021
Age 4.8 years
Type internet

Technical Details

Classification Payload
Mass 148.00 kg
Dry Mass 140.00 kg
Total Mass 148.00 kg
Length 1.30 m
Diameter 1.00 m
Span 5.00 m
Shape Trapezoid+2 pan
Manufacturer ONEWUS
Bus Type ARROW
Phase Status In Orbit
Owner/State ONEWEBN/UK

Most Searched